Retour au catalogue

STARLINK-11092

ActifCommunicationsVLEO
NORAD 59710·PAYLOAD·🇺🇸 United States

Lancé May 10, 2024 depuis Vandenberg Space Force Base

Loading…

Prochains Passages (prochaines 24 heures)

TLE

FraisSource: CelesTrak SupGP

Époque: Sep 14, 2026, 22:33 UTC

1 59710C 24088C   26257.94006944  .00057300  00000+0  47163-3 0  2577
2 59710  53.1567 113.5870 0001168  90.6881 238.4361 15.69699524    18

Suivez STARLINK-11092 en temps réel avec AllMySat

Download on the App Store